Simultaneous Nadir Overpasses (SNOs) Predictions

Prediction of SNOs between GOES-15 and METOP-B Satellite Orbit:

Table of predicted SNOs for the next 14.0 days since TLE Epoch: 10/5/2024
Index Date Time (GOES-15) GOES-15 Lat,Lon METOP-B Lat,Lon Distance(km) Time Diff (sec)
1 10/05/2024 05:24:39 -0.30, 61.21 0.40, 58.09 355.15 80
2 10/06/2024 05:06:38 -0.29, 61.20 -0.72, 63.08 214.53 80
3 10/07/2024 17:25:34 0.30, 61.34 -0.33, 58.49 324.52 80
4 10/08/2024 17:04:52 0.29, 61.35 0.76, 63.50 244.43 80
5 10/10/2024 05:21:00 -0.29, 61.23 0.21, 58.93 262.25 80
6 10/11/2024 05:02:58 -0.28, 61.24 -0.89, 63.93 306.81 80
7 10/12/2024 17:21:53 0.29, 61.38 -0.16, 59.34 232.44 80
8 10/13/2024 16:58:30 0.28, 61.40 0.96, 64.34 336.11 80
9 10/15/2024 05:17:18 -0.29, 61.28 0.01, 59.78 171.20 80
10 10/16/2024 04:59:14 -0.29, 61.29 -1.07, 64.79 397.79 80
11 10/17/2024 17:18:08 0.30, 61.44 0.01, 60.20 141.06 80
12 10/18/2024 16:54:45 0.29, 61.46 1.10, 65.21 427.19 80
